Location: Newark
(45.4422°N, 16.2769°E)
Time: 23:17:44
(UTC+00:00)

Explorer 11/Cluster Stage 4 - Visible Passes

Search period start: 15 December 2019 00:00
Search period end: 25 December 2019 00:00
Orbit: 467 x 1259 km, 28.8° (Epoch: 15 December)

Date Brightness Start Highest point End Pass type
(mag) Time Alt. Az. Time Alt. Az. Time Alt. Az.
18 Dec 9.8 05:44:06 10° SSW 05:49:12 18° SSE 05:54:09 10° SE visible
19 Dec 9.7 05:32:46 10° SSW 05:38:10 19° SSE 05:43:29 10° SE visible
20 Dec 9.9 03:37:35 10° SSE 03:39:17 11° SSE 03:41:01 10° SE visible
20 Dec 9.6 05:21:32 10° SSW 05:27:09 20° SSE 05:32:43 10° SE visible
21 Dec 9.7 03:25:32 10° S 03:28:14 12° SSE 03:31:01 10° SE visible
21 Dec 9.5 05:10:23 10° SW 05:16:07 21° S 05:21:54 10° SE visible
22 Dec 9.6 03:13:55 10° S 03:17:11 13° SSE 03:20:35 10° SE visible
22 Dec 9.4 04:59:18 10° SW 05:05:05 22° S 05:10:59 10° SE visible
23 Dec 9.4 03:03:44 12° S 03:06:10 14° SSE 03:09:57 10° SE visible
23 Dec 9.3 04:48:17 10° SW 04:54:03 22° S 05:00:03 10° SE visible
24 Dec 9.3 02:54:00 14° SSE 02:55:08 15° SSE 02:59:11 10° SE visible
24 Dec 9.2 04:37:19 10° SW 04:43:01 23° S 04:49:02 10° SE visible
